Provo, UT

9:30 AM MDT on July 28, 2017 (GMT -0600)
Provo Municipal

Weather History for KPVU - August, 2014

Change the Weather History Date:

Thursday, August 28, 2014

  Actual Average Record
Temperature  
Mean Temperature 64 °F -  
Max Temperature 78 °F 82 °F 93 °F (2012)
Min Temperature 51 °F 54 °F 42 °F (2004)
Growing Degree Days 14 (Base 50)    
Moisture  
Dew Point 49 °F    
Average Humidity 68    
Maximum Humidity 82    
Minimum Humidity 32    
Precipitation  
Precipitation 0.00 in - - ()
Sea Level Pressure  
Sea Level Pressure 30.23 in    
Wind  
Wind Speed 3 mph (ESE)    
Max Wind Speed 7 mph    
Max Gust Speed -    
Visibility 11 miles    
Events      
Averages and records for this station are not official NWS values.
T = Trace of Precipitation, MM = Missing Value Source: NWS Daily Summary

Daily Weather History Graph

Daily Weather History Graph

Search for Another Location

Airport or City:

Trip Planner

Search our weather history database for the weather conditions in past years. The results will help you decide how hot, cold, wet, or windy it might be!

Date:

Astronomy

Aug. 28, 2014 Rise Set
Actual Time 6:50 AM MDT 8:04 PM MDT
Civil Twilight 6:22 AM MDT 8:32 PM MDT
Nautical Twilight 5:48 AM MDT 9:06 PM MDT
Astronomical Twilight 5:13 AM MDT 9:41 PM MDT
Moon 9:46 AM MDT 9:30 PM MDT
Length of Visible Light 14h 10m
Length of Day
13h 14m
Waxing Crescent, 9% of the Moon is Illuminated
Aug 28
Waxing Crescent
Sep 2
First Quarter
Sep 8
Full
Sep 15
Last Quarter
Sep 24
New

Hourly Weather History & Observations

Time (MDT) Temp. Dew Point Humidity Pressure Visibility Wind Dir Wind Speed Gust Speed Precip Events Conditions
12:15 AM 57.2 °F 50.0 °F 77% 30.26 in 10.0 mi Calm Calm - N/A   Clear
12:35 AM 57.2 °F 50.0 °F 77% 30.26 in 10.0 mi SSE 3.5 mph - N/A   Clear
12:55 AM 57.2 °F 50.0 °F 77% 30.26 in 10.0 mi ESE 3.5 mph - N/A   Clear
1:15 AM 55.4 °F 48.2 °F 77% 30.25 in 10.0 mi East 4.6 mph - N/A   Clear
1:35 AM 53.6 °F 48.2 °F 82% 30.25 in 10.0 mi Calm Calm - N/A   Clear
1:55 AM 55.4 °F 48.2 °F 77% 30.25 in 10.0 mi Calm Calm - N/A   Clear
2:15 AM 55.4 °F 48.2 °F 77% 30.25 in 10.0 mi SE 5.8 mph - N/A   Clear
2:35 AM 55.4 °F 48.2 °F 77% 30.26 in 10.0 mi East 3.5 mph - N/A   Clear
2:55 AM 55.4 °F 48.2 °F 77% 30.25 in 10.0 mi SE 4.6 mph - N/A   Clear
3:15 AM 53.6 °F 46.4 °F 77% 30.25 in 10.0 mi SSE 5.8 mph - N/A   Clear
3:35 AM 55.4 °F 48.2 °F 77% 30.26 in 10.0 mi ESE 4.6 mph - N/A   Clear
3:55 AM 53.6 °F 48.2 °F 82% 30.26 in 10.0 mi ESE 5.8 mph - N/A   Clear
4:15 AM 53.6 °F 46.4 °F 77% 30.25 in 10.0 mi East 4.6 mph - N/A   Clear
4:35 AM 53.6 °F 46.4 °F 77% 30.26 in 10.0 mi ESE 4.6 mph - N/A   Clear
4:55 AM 53.6 °F 46.4 °F 77% 30.26 in 10.0 mi Calm Calm - N/A   Clear
5:15 AM 53.6 °F 46.4 °F 77% 30.26 in 10.0 mi ESE 3.5 mph - N/A   Clear
5:35 AM 53.6 °F 46.4 °F 77% 30.26 in 10.0 mi ENE 4.6 mph - N/A   Clear
5:55 AM 53.6 °F 46.4 °F 77% 30.26 in 10.0 mi Calm Calm - N/A   Clear
6:15 AM 53.6 °F 46.4 °F 77% 30.27 in 10.0 mi Calm Calm - N/A   Clear
6:35 AM 51.8 °F 46.4 °F 82% 30.27 in 10.0 mi SE 4.6 mph - N/A   Clear
6:49 AM 53.6 °F 46.4 °F 77% 30.27 in 15.0 mi ESE 5.8 mph - N/A   Partly Cloudy
7:52 AM 55.4 °F 48.2 °F 77% 30.28 in 15.0 mi ESE 5.8 mph - N/A   Clear
8:53 AM 60.8 °F 48.2 °F 63% 30.29 in 15.0 mi SSE 5.8 mph - N/A   Clear
9:54 AM 62.6 °F 51.8 °F 68% 30.29 in 15.0 mi SE 3.5 mph - N/A   Clear
11:56 AM 69.8 °F 51.8 °F 53% 30.27 in 15.0 mi Variable 4.6 mph - N/A   Scattered Clouds
12:57 PM 73.4 °F 51.8 °F 47% 30.25 in 15.0 mi Variable 4.6 mph - N/A   Scattered Clouds
1:59 PM 75.2 °F 48.2 °F 38% 30.22 in 15.0 mi Variable 4.6 mph - N/A   Scattered Clouds
3:00 PM 77.0 °F 44.6 °F 32% 30.20 in 15.0 mi Variable 4.6 mph - N/A   Scattered Clouds
6:53 PM 78.8 °F 48.2 °F 34% 30.13 in 15.0 mi SW 4.6 mph - N/A   Partly Cloudy
7:55 PM 73.4 °F 53.6 °F 50% 30.13 in 15.0 mi Calm Calm - N/A   Partly Cloudy
8:48 PM 69.8 °F 51.8 °F 53% 30.14 in 15.0 mi East 4.6 mph - N/A   Partly Cloudy
9:15 PM 68.0 °F 51.8 °F 56% 30.15 in 10.0 mi NE 3.5 mph - N/A   Clear
9:35 PM 68.0 °F 48.2 °F 49% 30.15 in 10.0 mi SE 3.5 mph - N/A   Clear
9:55 PM 66.2 °F 51.8 °F 60% 30.16 in 10.0 mi SSE 5.8 mph - N/A   Clear
10:15 PM 64.4 °F 51.8 °F 64% 30.16 in 10.0 mi Calm Calm - N/A   Clear
10:35 PM 64.4 °F 53.6 °F 68% 30.16 in 10.0 mi Calm Calm - N/A   Clear
10:55 PM 62.6 °F 51.8 °F 68% 30.16 in 10.0 mi Calm Calm - N/A   Clear
11:15 PM 62.6 °F 51.8 °F 68% 30.15 in 10.0 mi Calm Calm - N/A   Clear
11:35 PM 62.6 °F 51.8 °F 68% 30.15 in 10.0 mi SE 6.9 mph - N/A   Clear
11:55 PM 60.8 °F 51.8 °F 72% 30.15 in 10.0 mi ESE 3.5 mph - N/A   Clear